Station Historical Data
Daily Summary for July 12, 2017 Units:  English    Metric   Both
« Previous Day
Next Day »
Daily Weekly Monthly Yearly Custom
  High: Low: Average:
Temperature: 87.1 °F 68.0 °F 76 °F
Dew Point: 56.2 °F 46.2 °F 50.9 °F
Humidity: 53 % 29 % 42 %
Wind Speed: 14.0 mph 0.0 mph 2.8 mph
Wind Gust: 16.0 mph - -
Wind:- - SSE
Pressure: 29.92 in 29.85 in -
Precipitation: 0.00 in    
Historical Graphs
 
 
Tabular Data for July 12, 2017
Time Temperature Dew Point Pressure Wind Wind Speed Wind Gust Humidity Rainfall Rate (Hourly) solar
00:03 71.6 °F 47.9 °F 29.87 in Calm   9.0 mph 43 % 0.00 in 0.00 W/m2
00:08 71.5 °F 47.8 °F 29.87 in East 12.0 mph 12.0 mph 43 % 0.00 in 0.00 W/m2
00:13 71.5 °F 48.5 °F 29.86 in ESE 6.0 mph 12.0 mph 44 % 0.00 in 0.00 W/m2
00:18 71.4 °F 48.4 °F 29.87 in ESE 5.0 mph 9.0 mph 44 % 0.00 in 0.00 W/m2
00:23 71.3 °F 48.3 °F 29.86 in East 7.0 mph 12.0 mph 44 % 0.00 in 0.00 W/m2
00:28 71.3 °F 48.3 °F 29.86 in East 5.0 mph 15.0 mph 44 % 0.00 in 0.00 W/m2
00:33 71.3 °F 48.3 °F 29.86 in East 5.0 mph 12.0 mph 44 % 0.00 in 0.00 W/m2
00:39 71.2 °F 48.8 °F 29.86 in Calm   11.0 mph 45 % 0.00 in 0.00 W/m2
00:44 71.2 °F 48.8 °F 29.86 in ESE 9.0 mph 13.0 mph 45 % 0.00 in 0.00 W/m2
00:49 71.2 °F 48.8 °F 29.86 in ESE 1.0 mph 13.0 mph 45 % 0.00 in 0.00 W/m2
00:54 71.2 °F 48.8 °F 29.86 in Calm   11.0 mph 45 % 0.00 in 0.00 W/m2
00:55 71.2 °F 48.8 °F 29.86 in ESE 5.0 mph 11.0 mph 45 % 0.00 in 0.00 W/m2
01:00 71.2 °F 48.8 °F 29.86 in Calm   8.0 mph 45 % 0.00 in 0.00 W/m2
01:05 71.2 °F 48.8 °F 29.86 in Calm   12.0 mph 45 % 0.00 in 0.00 W/m2
01:10 71.2 °F 48.8 °F 29.86 in Calm   11.0 mph 45 % 0.00 in 0.00 W/m2
01:15 71.1 °F 49.3 °F 29.86 in Calm   12.0 mph 46 % 0.00 in 0.00 W/m2
01:20 71.0 °F 49.2 °F 29.86 in Calm   8.0 mph 46 % 0.00 in 0.00 W/m2
01:25 71.0 °F 49.2 °F 29.86 in East 2.0 mph 9.0 mph 46 % 0.00 in 0.00 W/m2
01:30 70.9 °F 49.1 °F 29.86 in ESE 6.0 mph 12.0 mph 46 % 0.00 in 0.00 W/m2
01:35 70.8 °F 49.0 °F 29.86 in Calm   11.0 mph 46 % 0.00 in 0.00 W/m2
01:40 70.7 °F 48.9 °F 29.86 in ESE 2.0 mph 9.0 mph 46 % 0.00 in 0.00 W/m2
01:45 70.6 °F 48.8 °F 29.86 in Calm   9.0 mph 46 % 0.00 in 0.00 W/m2
01:50 70.5 °F 49.3 °F 29.86 in ESE 7.0 mph 12.0 mph 47 % 0.00 in 0.00 W/m2
01:55 70.4 °F 49.2 °F 29.86 in ESE 4.0 mph 11.0 mph 47 % 0.00 in 0.00 W/m2
02:00 70.4 °F 49.2 °F 29.86 in ESE 7.0 mph 11.0 mph 47 % 0.00 in 0.00 W/m2
02:05 70.3 °F 49.1 °F 29.86 in ESE 6.0 mph 11.0 mph 47 % 0.00 in 0.00 W/m2
02:10 70.3 °F 49.1 °F 29.86 in Calm   12.0 mph 47 % 0.00 in 0.00 W/m2
02:15 70.3 °F 49.1 °F 29.86 in Calm   11.0 mph 47 % 0.00 in 0.00 W/m2
02:20 70.2 °F 49.6 °F 29.86 in East 7.0 mph 15.0 mph 48 % 0.00 in 0.00 W/m2
02:25 70.1 °F 49.0 °F 29.86 in ESE 2.0 mph 12.0 mph 47 % 0.00 in 0.00 W/m2
02:30 70.1 °F 49.5 °F 29.85 in East 5.0 mph 14.0 mph 48 % 0.00 in 0.00 W/m2
02:36 70.0 °F 49.4 °F 29.85 in ESE 7.0 mph 14.0 mph 48 % 0.00 in 0.00 W/m2
02:41 70.0 °F 49.4 °F 29.86 in ESE 9.0 mph 13.0 mph 48 % 0.00 in 0.00 W/m2
02:46 70.0 °F 49.4 °F 29.86 in ESE 9.0 mph 13.0 mph 48 % 0.00 in 0.00 W/m2
02:51 70.0 °F 49.4 °F 29.86 in ESE 12.0 mph 12.0 mph 48 % 0.00 in 0.00 W/m2
02:56 70.0 °F 49.4 °F 29.86 in ESE 2.0 mph 4.0 mph 48 % 0.00 in 0.00 W/m2
03:01 69.9 °F 49.3 °F 29.86 in East 6.0 mph 7.0 mph 48 % 0.00 in 0.00 W/m2
03:06 69.9 °F 48.8 °F 29.86 in ESE 12.0 mph 12.0 mph 47 % 0.00 in 0.00 W/m2
03:11 69.9 °F 49.3 °F 29.86 in East 7.0 mph 7.0 mph 48 % 0.00 in 0.00 W/m2
03:16 69.8 °F 49.2 °F 29.86 in East 5.0 mph 11.0 mph 48 % 0.00 in 0.00 W/m2
03:21 69.8 °F 49.2 °F 29.86 in ESE 4.0 mph 9.0 mph 48 % 0.00 in 0.00 W/m2
03:26 69.8 °F 49.2 °F 29.86 in ESE 9.0 mph 12.0 mph 48 % 0.00 in 0.00 W/m2
03:31 69.8 °F 48.7 °F 29.85 in ESE 1.0 mph 11.0 mph 47 % 0.00 in 0.00 W/m2
03:36 69.7 °F 48.6 °F 29.86 in East 7.0 mph 9.0 mph 47 % 0.00 in 0.00 W/m2
03:41 69.7 °F 48.6 °F 29.85 in Calm   7.0 mph 47 % 0.00 in 0.00 W/m2
03:46 69.7 °F 48.6 °F 29.85 in East 1.0 mph 7.0 mph 47 % 0.00 in 0.00 W/m2
03:51 69.7 °F 48.6 °F 29.86 in East 8.0 mph 11.0 mph 47 % 0.00 in 0.00 W/m2
03:56 69.6 °F 48.5 °F 29.86 in ESE 4.0 mph 9.0 mph 47 % 0.00 in 0.00 W/m2
04:01 69.6 °F 48.5 °F 29.86 in ESE 1.0 mph 8.0 mph 47 % 0.00 in 0.00 W/m2
04:06 69.5 °F 48.4 °F 29.86 in East 9.0 mph 16.0 mph 47 % 0.00 in 0.00 W/m2
04:11 69.5 °F 48.4 °F 29.86 in ESE 4.0 mph 15.0 mph 47 % 0.00 in 0.00 W/m2
04:16 69.4 °F 48.3 °F 29.86 in Calm   12.0 mph 47 % 0.00 in 0.00 W/m2
04:21 69.4 °F 48.3 °F 29.86 in ESE 7.0 mph 8.0 mph 47 % 0.00 in 0.00 W/m2
04:26 69.3 °F 48.2 °F 29.86 in East 8.0 mph 8.0 mph 47 % 0.00 in 0.00 W/m2
04:31 69.3 °F 48.2 °F 29.86 in East 7.0 mph 13.0 mph 47 % 0.00 in 0.00 W/m2
04:36 69.3 °F 47.7 °F 29.86 in ESE 8.0 mph 12.0 mph 46 % 0.00 in 0.00 W/m2
04:41 69.2 °F 48.1 °F 29.86 in ESE 6.0 mph 11.0 mph 47 % 0.00 in 0.00 W/m2
04:46 69.2 °F 48.1 °F 29.86 in ESE 4.0 mph 11.0 mph 47 % 0.00 in 0.00 W/m2
04:51 69.2 °F 47.6 °F 29.86 in ESE 9.0 mph 11.0 mph 46 % 0.00 in 0.00 W/m2
04:56 69.1 °F 47.5 °F 29.87 in ESE 8.0 mph 14.0 mph 46 % 0.00 in 0.00 W/m2
05:01 69.1 °F 47.5 °F 29.87 in ESE 14.0 mph 15.0 mph 46 % 0.00 in 0.00 W/m2
05:06 69.0 °F 47.4 °F 29.87 in ESE 7.0 mph 13.0 mph 46 % 0.00 in 0.00 W/m2
05:11 69.0 °F 47.4 °F 29.87 in East 1.0 mph 16.0 mph 46 % 0.00 in 0.00 W/m2
05:16 69.0 °F 47.4 °F 29.87 in East 9.0 mph 13.0 mph 46 % 0.00 in 0.00 W/m2
05:21 69.0 °F 47.4 °F 29.87 in ESE 11.0 mph 12.0 mph 46 % 0.00 in 0.00 W/m2
05:26 69.0 °F 46.8 °F 29.87 in East 9.0 mph 11.0 mph 45 % 0.00 in 0.00 W/m2
05:31 69.0 °F 46.8 °F 29.87 in East 11.0 mph 11.0 mph 45 % 0.00 in 0.00 W/m2
05:36 68.9 °F 46.7 °F 29.87 in ESE 7.0 mph 14.0 mph 45 % 0.00 in 0.00 W/m2
05:41 68.9 °F 46.7 °F 29.87 in ESE 9.0 mph 9.0 mph 45 % 0.00 in 0.00 W/m2
05:46 68.9 °F 46.7 °F 29.88 in East 6.0 mph 13.0 mph 45 % 0.00 in 5.00 W/m2
05:51 68.8 °F 46.6 °F 29.88 in ESE 8.0 mph 8.0 mph 45 % 0.00 in 7.00 W/m2
05:54 68.8 °F 46.6 °F 29.88 in ESE 8.0 mph 14.0 mph 45 % 0.00 in 7.00 W/m2
05:59 68.8 °F 46.6 °F 29.88 in Calm   12.0 mph 45 % 0.00 in 9.00 W/m2
06:04 68.7 °F 46.5 °F 29.88 in ESE 4.0 mph 15.0 mph 45 % 0.00 in 12.00 W/m2
06:09 68.7 °F 46.5 °F 29.88 in ESE 1.0 mph 13.0 mph 45 % 0.00 in 14.00 W/m2
06:15 68.6 °F 46.4 °F 29.88 in ESE 5.0 mph 12.0 mph 45 % 0.00 in 14.00 W/m2
06:20 68.5 °F 46.3 °F 29.88 in East 6.0 mph 15.0 mph 45 % 0.00 in 21.00 W/m2
06:25 68.5 °F 46.3 °F 29.88 in East 8.0 mph 14.0 mph 45 % 0.00 in 30.00 W/m2
06:30 68.5 °F 46.3 °F 29.88 in East 8.0 mph 13.0 mph 45 % 0.00 in 42.00 W/m2
06:35 68.4 °F 46.2 °F 29.88 in ESE 4.0 mph 15.0 mph 45 % 0.00 in 51.00 W/m2
06:40 68.4 °F 46.2 °F 29.88 in East 8.0 mph 15.0 mph 45 % 0.00 in 67.00 W/m2
06:45 68.4 °F 46.8 °F 29.88 in ESE 4.0 mph 11.0 mph 46 % 0.00 in 83.00 W/m2
06:50 68.3 °F 46.7 °F 29.88 in Calm   11.0 mph 46 % 0.00 in 98.00 W/m2
06:55 68.2 °F 46.7 °F 29.89 in ESE 6.0 mph 14.0 mph 46 % 0.00 in 116.00 W/m2
07:00 68.2 °F 47.2 °F 29.89 in ESE 5.0 mph 12.0 mph 47 % 0.00 in 135.00 W/m2
07:05 68.2 °F 47.2 °F 29.89 in ESE 5.0 mph 13.0 mph 47 % 0.00 in 155.00 W/m2
07:10 68.1 °F 47.1 °F 29.89 in ESE 2.0 mph 12.0 mph 47 % 0.00 in 174.00 W/m2
07:15 68.1 °F 47.7 °F 29.89 in Calm   13.0 mph 48 % 0.00 in 195.00 W/m2
07:20 68.1 °F 47.7 °F 29.89 in ESE 8.0 mph 11.0 mph 48 % 0.00 in 213.00 W/m2
07:25 68.0 °F 47.6 °F 29.89 in East 9.0 mph 13.0 mph 48 % 0.00 in 232.00 W/m2
07:30 68.0 °F 47.6 °F 29.89 in ESE 5.0 mph 9.0 mph 48 % 0.00 in 253.00 W/m2
07:35 68.0 °F 48.2 °F 29.89 in ENE 3.0 mph 12.0 mph 49 % 0.00 in 271.00 W/m2
07:40 68.0 °F 47.6 °F 29.89 in East 10.0 mph 13.0 mph 48 % 0.00 in 287.00 W/m2
07:45 68.0 °F 48.2 °F 29.89 in ESE 2.0 mph 12.0 mph 49 % 0.00 in 308.00 W/m2
07:50 68.1 °F 48.2 °F 29.89 in ESE 9.0 mph 13.0 mph 49 % 0.00 in 323.00 W/m2
07:55 68.1 °F 48.2 °F 29.89 in East 4.0 mph 11.0 mph 49 % 0.00 in 339.00 W/m2
08:00 68.2 °F 48.3 °F 29.90 in Calm   9.0 mph 49 % 0.00 in 357.00 W/m2
08:05 68.3 °F 48.4 °F 29.90 in ESE 8.0 mph 9.0 mph 49 % 0.00 in 373.00 W/m2
08:10 68.5 °F 49.2 °F 29.90 in East 7.0 mph 12.0 mph 50 % 0.00 in 388.00 W/m2
08:15 68.6 °F 49.2 °F 29.90 in East 2.0 mph 11.0 mph 50 % 0.00 in 403.00 W/m2
08:20 68.8 °F 49.4 °F 29.90 in ESE 5.0 mph 9.0 mph 50 % 0.00 in 418.00 W/m2
08:25 69.0 °F 50.1 °F 29.90 in ESE 1.0 mph 8.0 mph 51 % 0.00 in 436.00 W/m2
08:26 69.0 °F 50.1 °F 29.90 in ESE 6.0 mph 7.0 mph 51 % 0.00 in 434.00 W/m2
08:31 69.2 °F 50.3 °F 29.90 in ESE 1.0 mph 2.0 mph 51 % 0.00 in 454.00 W/m2
08:36 69.4 °F 50.5 °F 29.90 in ESE 5.0 mph 6.0 mph 51 % 0.00 in 471.00 W/m2
08:41 69.7 °F 50.8 °F 29.90 in Calm   5.0 mph 51 % 0.00 in 485.00 W/m2
08:46 69.9 °F 51.0 °F 29.91 in Calm     51 % 0.00 in 501.00 W/m2
08:52 70.2 °F 51.2 °F 29.90 in Calm   4.0 mph 51 % 0.00 in 515.00 W/m2
08:57 70.4 °F 52.0 °F 29.91 in Calm   6.0 mph 52 % 0.00 in 533.00 W/m2
09:02 70.7 °F 51.7 °F 29.90 in Calm     51 % 0.00 in 543.00 W/m2
09:07 71.1 °F 53.1 °F 29.91 in Calm     53 % 0.00 in 561.00 W/m2
09:12 71.5 °F 53.5 °F 29.91 in ESE 1.0 mph 1.0 mph 53 % 0.00 in 573.00 W/m2
09:17 71.9 °F 53.3 °F 29.91 in ESE 4.0 mph 4.0 mph 52 % 0.00 in 587.00 W/m2
09:22 72.2 °F 54.1 °F 29.91 in Calm   1.0 mph 53 % 0.00 in 603.00 W/m2
09:27 72.5 °F 54.4 °F 29.91 in Calm   4.0 mph 53 % 0.00 in 617.00 W/m2
09:32 72.7 °F 53.0 °F 29.91 in Calm     50 % 0.00 in 631.00 W/m2
09:36 73.1 °F 53.9 °F 29.91 in Calm   1.0 mph 51 % 0.00 in 642.00 W/m2
09:41 73.4 °F 53.7 °F 29.91 in Calm   1.0 mph 50 % 0.00 in 656.00 W/m2
09:47 73.7 °F 53.4 °F 29.90 in Calm   1.0 mph 49 % 0.00 in 668.00 W/m2
09:52 74.1 °F 53.2 °F 29.90 in Calm     48 % 0.00 in 680.00 W/m2
09:57 74.5 °F 53.0 °F 29.91 in Calm   4.0 mph 47 % 0.00 in 694.00 W/m2
10:02 74.8 °F 53.8 °F 29.91 in Calm     48 % 0.00 in 705.00 W/m2
10:07 75.3 °F 51.9 °F 29.91 in Calm   5.0 mph 44 % 0.00 in 717.00 W/m2
10:12 75.6 °F 50.3 °F 29.91 in SSE 1.0 mph 6.0 mph 41 % 0.00 in 724.00 W/m2
10:17 76.1 °F 48.7 °F 29.91 in SSE 5.0 mph 5.0 mph 38 % 0.00 in 737.00 W/m2
10:22 76.8 °F 52.0 °F 29.91 in Calm   1.0 mph 42 % 0.00 in 749.00 W/m2
10:27 77.3 °F 52.5 °F 29.91 in SSE 2.0 mph 2.0 mph 42 % 0.00 in 761.00 W/m2
10:32 77.8 °F 52.2 °F 29.91 in Calm   4.0 mph 41 % 0.00 in 772.00 W/m2
10:37 78.3 °F 50.6 °F 29.91 in SW 4.0 mph 6.0 mph 38 % 0.00 in 782.00 W/m2
10:42 78.7 °F 51.0 °F 29.91 in Calm   8.0 mph 38 % 0.00 in 793.00 W/m2
10:47 79.0 °F 49.0 °F 29.91 in Calm   2.0 mph 35 % 0.00 in 802.00 W/m2
10:52 79.4 °F 50.2 °F 29.91 in Calm   5.0 mph 36 % 0.00 in 810.00 W/m2
10:57 79.8 °F 50.5 °F 29.91 in South 9.0 mph 11.0 mph 36 % 0.00 in 821.00 W/m2
11:02 80.2 °F 53.0 °F 29.91 in Calm     39 % 0.00 in 826.00 W/m2
11:07 80.5 °F 51.1 °F 29.91 in SSW 6.0 mph 9.0 mph 36 % 0.00 in 838.00 W/m2
11:12 80.9 °F 52.2 °F 29.91 in South 11.0 mph 11.0 mph 37 % 0.00 in 846.00 W/m2
11:17 81.2 °F 51.0 °F 29.91 in SW 6.0 mph 7.0 mph 35 % 0.00 in 856.00 W/m2
11:22 81.4 °F 49.6 °F 29.91 in South 3.0 mph 10.0 mph 33 % 0.00 in 861.00 W/m2
11:27 81.7 °F 51.4 °F 29.91 in Calm   7.0 mph 35 % 0.00 in 861.00 W/m2
11:32 82.0 °F 51.7 °F 29.91 in Calm   7.0 mph 35 % 0.00 in 875.00 W/m2
11:37 82.3 °F 51.2 °F 29.92 in SW 3.0 mph 6.0 mph 34 % 0.00 in 879.00 W/m2
11:42 82.6 °F 51.4 °F 29.92 in SW 2.0 mph 4.0 mph 34 % 0.00 in 888.00 W/m2
11:47 82.9 °F 52.5 °F 29.92 in SW 4.0 mph 8.0 mph 35 % 0.00 in 893.00 W/m2
11:52 83.0 °F 51.8 °F 29.92 in Calm   10.0 mph 34 % 0.00 in 898.00 W/m2
11:57 83.2 °F 51.9 °F 29.92 in Calm   3.0 mph 34 % 0.00 in 902.00 W/m2
12:02 83.4 °F 51.3 °F 29.92 in Calm   8.0 mph 33 % 0.00 in 909.00 W/m2
12:07 83.7 °F 52.4 °F 29.92 in Calm   3.0 mph 34 % 0.00 in 909.00 W/m2
12:12 83.8 °F 50.8 °F 29.92 in SW 2.0 mph 5.0 mph 32 % 0.00 in 914.00 W/m2
12:17 84.0 °F 51.0 °F 29.92 in Calm   6.0 mph 32 % 0.00 in 919.00 W/m2
12:22 84.3 °F 51.3 °F 29.92 in SSW 4.0 mph 8.0 mph 32 % 0.00 in 921.00 W/m2
12:28 84.8 °F 52.5 °F 29.92 in Calm   3.0 mph 33 % 0.00 in 921.00 W/m2
12:33 85.0 °F 51.0 °F 29.91 in Calm   3.0 mph 31 % 0.00 in 916.00 W/m2
12:38 85.2 °F 52.0 °F 29.92 in SW 1.0 mph 3.0 mph 32 % 0.00 in 925.00 W/m2
12:43 85.3 °F 52.1 °F 29.91 in Calm   6.0 mph 32 % 0.00 in 918.00 W/m2
12:48 85.5 °F 52.3 °F 29.91 in SW 3.0 mph 10.0 mph 32 % 0.00 in 919.00 W/m2
12:53 85.9 °F 51.8 °F 29.91 in SW 5.0 mph 10.0 mph 31 % 0.00 in 921.00 W/m2
12:58 86.2 °F 52.0 °F 29.91 in Calm   5.0 mph 31 % 0.00 in 919.00 W/m2
13:03 86.3 °F 53.0 °F 29.91 in WSW 6.0 mph 7.0 mph 32 % 0.00 in 928.00 W/m2
13:08 86.1 °F 53.7 °F 29.91 in WSW 4.0 mph 7.0 mph 33 % 0.00 in 932.00 W/m2
13:13 86.2 °F 53.8 °F 29.91 in WSW 1.0 mph 2.0 mph 33 % 0.00 in 932.00 W/m2
13:18 86.5 °F 54.0 °F 29.91 in SW 4.0 mph 7.0 mph 33 % 0.00 in 932.00 W/m2
13:23 87.1 °F 53.7 °F 29.91 in West 5.0 mph 13.0 mph 32 % 0.00 in 930.00 W/m2
13:28 86.8 °F 53.4 °F 29.91 in SW 3.0 mph 8.0 mph 32 % 0.00 in 925.00 W/m2
13:33 86.4 °F 53.9 °F 29.91 in Calm     33 % 0.00 in 926.00 W/m2
13:38 86.1 °F 53.7 °F 29.91 in SW 1.0 mph 9.0 mph 33 % 0.00 in 925.00 W/m2
13:43 85.8 °F 51.7 °F 29.91 in WSW 4.0 mph 9.0 mph 31 % 0.00 in 925.00 W/m2
13:48 85.4 °F 53.0 °F 29.91 in SW 3.0 mph 6.0 mph 33 % 0.00 in 918.00 W/m2
13:53 85.4 °F 52.2 °F 29.90 in SW 8.0 mph 14.0 mph 32 % 0.00 in 907.00 W/m2
13:58 85.5 °F 53.1 °F 29.90 in WSW 1.0 mph 13.0 mph 33 % 0.00 in 898.00 W/m2
14:03 85.7 °F 53.3 °F 29.91 in SW 7.0 mph 11.0 mph 33 % 0.00 in 896.00 W/m2
14:08 86.0 °F 51.9 °F 29.90 in WSW 9.0 mph 9.0 mph 31 % 0.00 in 898.00 W/m2
14:13 86.4 °F 52.2 °F 29.91 in West 4.0 mph 8.0 mph 31 % 0.00 in 893.00 W/m2
14:18 86.3 °F 51.2 °F 29.91 in West 5.0 mph 13.0 mph 30 % 0.00 in 891.00 W/m2
14:23 85.9 °F 50.9 °F 29.90 in Calm   9.0 mph 30 % 0.00 in 875.00 W/m2
14:28 85.6 °F 51.5 °F 29.91 in SW 4.0 mph 11.0 mph 31 % 0.00 in 879.00 W/m2
14:33 85.6 °F 52.4 °F 29.90 in SW 7.0 mph 7.0 mph 32 % 0.00 in 870.00 W/m2
14:38 85.8 °F 50.8 °F 29.91 in Calm   9.0 mph 30 % 0.00 in 854.00 W/m2
14:43 85.8 °F 51.7 °F 29.91 in West 6.0 mph 9.0 mph 31 % 0.00 in 840.00 W/m2
14:48 85.7 °F 50.7 °F 29.90 in WSW 6.0 mph 10.0 mph 30 % 0.00 in 856.00 W/m2
14:53 85.8 °F 51.7 °F 29.91 in WSW 6.0 mph 14.0 mph 31 % 0.00 in 861.00 W/m2
14:58 85.6 °F 52.4 °F 29.91 in SW 6.0 mph 11.0 mph 32 % 0.00 in 830.00 W/m2
15:03 85.7 °F 52.5 °F 29.90 in SW 4.0 mph 6.0 mph 32 % 0.00 in 833.00 W/m2
15:08 85.9 °F 51.8 °F 29.90 in WSW 11.0 mph 11.0 mph 31 % 0.00 in 812.00 W/m2
15:13 85.9 °F 52.7 °F 29.90 in WSW 2.0 mph 11.0 mph 32 % 0.00 in 814.00 W/m2
15:18 85.8 °F 52.6 °F 29.90 in West 1.0 mph 8.0 mph 32 % 0.00 in 803.00 W/m2
15:23 85.8 °F 52.6 °F 29.90 in Calm     32 % 0.00 in 796.00 W/m2
15:28 85.7 °F 53.3 °F 29.90 in Calm   8.0 mph 33 % 0.00 in 795.00 W/m2
15:33 85.5 °F 52.3 °F 29.90 in Calm   8.0 mph 32 % 0.00 in 779.00 W/m2
15:38 85.4 °F 53.0 °F 29.90 in Calm   1.0 mph 33 % 0.00 in 770.00 W/m2
15:41 85.3 °F 50.4 °F 29.90 in Calm   9.0 mph 30 % 0.00 in 759.00 W/m2
15:46 85.4 °F 51.4 °F 29.90 in South 1.0 mph 5.0 mph 31 % 0.00 in 752.00 W/m2
15:51 85.5 °F 51.4 °F 29.90 in Calm   4.0 mph 31 % 0.00 in 738.00 W/m2
15:56 85.6 °F 49.7 °F 29.90 in Calm     29 % 0.00 in 731.00 W/m2
16:01 85.7 °F 51.6 °F 29.90 in SW 7.0 mph 8.0 mph 31 % 0.00 in 717.00 W/m2
16:06 85.7 °F 50.7 °F 29.90 in Calm   6.0 mph 30 % 0.00 in 710.00 W/m2
16:11 85.7 °F 51.6 °F 29.90 in SW 9.0 mph 12.0 mph 31 % 0.00 in 693.00 W/m2
16:17 85.6 °F 50.7 °F 29.90 in Calm   3.0 mph 30 % 0.00 in 679.00 W/m2
16:22 85.5 °F 49.7 °F 29.90 in Calm   5.0 mph 29 % 0.00 in 668.00 W/m2
16:27 85.2 °F 51.2 °F 29.90 in Calm   6.0 mph 31 % 0.00 in 652.00 W/m2
16:32 85.0 °F 51.0 °F 29.90 in Calm   1.0 mph 31 % 0.00 in 642.00 W/m2
16:37 84.9 °F 50.9 °F 29.90 in WSW 2.0 mph 2.0 mph 31 % 0.00 in 626.00 W/m2
16:42 84.9 °F 50.0 °F 29.90 in SW 3.0 mph 8.0 mph 30 % 0.00 in 612.00 W/m2
16:47 84.9 °F 50.9 °F 29.90 in SSW 2.0 mph 4.0 mph 31 % 0.00 in 603.00 W/m2
16:52 84.9 °F 50.0 °F 29.90 in Calm   9.0 mph 30 % 0.00 in 585.00 W/m2
16:57 84.8 °F 50.8 °F 29.90 in West 5.0 mph 5.0 mph 31 % 0.00 in 564.00 W/m2
17:02 84.6 °F 51.5 °F 29.90 in Calm   5.0 mph 32 % 0.00 in 545.00 W/m2
17:07 84.4 °F 51.3 °F 29.90 in West 2.0 mph 3.0 mph 32 % 0.00 in 545.00 W/m2
17:12 84.2 °F 51.2 °F 29.90 in Calm   1.0 mph 32 % 0.00 in 531.00 W/m2
17:17 84.1 °F 51.1 °F 29.89 in Calm   7.0 mph 32 % 0.00 in 494.00 W/m2
17:22 84.1 °F 51.9 °F 29.89 in Calm   8.0 mph 33 % 0.00 in 489.00 W/m2
17:27 84.0 °F 51.8 °F 29.89 in Calm     33 % 0.00 in 478.00 W/m2
17:32 83.9 °F 50.9 °F 29.89 in Calm     32 % 0.00 in 438.00 W/m2
17:37 83.8 °F 52.5 °F 29.89 in SW 4.0 mph 5.0 mph 34 % 0.00 in 434.00 W/m2
17:42 83.8 °F 49.1 °F 29.89 in SW 1.0 mph 1.0 mph 30 % 0.00 in 422.00 W/m2
17:47 83.8 °F 50.0 °F 29.89 in Calm   1.0 mph 31 % 0.00 in 392.00 W/m2
17:52 83.8 °F 50.8 °F 29.89 in SW 1.0 mph 5.0 mph 32 % 0.00 in 376.00 W/m2
17:57 83.8 °F 51.7 °F 29.89 in Calm   2.0 mph 33 % 0.00 in 385.00 W/m2
18:02 83.6 °F 53.1 °F 29.89 in Calm     35 % 0.00 in 373.00 W/m2
18:07 83.4 °F 53.7 °F 29.89 in Calm   1.0 mph 36 % 0.00 in 345.00 W/m2
18:12 83.3 °F 52.8 °F 29.89 in Calm   1.0 mph 35 % 0.00 in 338.00 W/m2
18:17 83.2 °F 50.3 °F 29.88 in WSW 3.0 mph 5.0 mph 32 % 0.00 in 323.00 W/m2
18:22 83.0 °F 52.6 °F 29.88 in Calm   5.0 mph 35 % 0.00 in 311.00 W/m2
18:27 82.7 °F 51.5 °F 29.88 in Calm   1.0 mph 34 % 0.00 in 294.00 W/m2
18:32 82.6 °F 53.7 °F 29.89 in WSW 1.0 mph 1.0 mph 37 % 0.00 in 272.00 W/m2
18:37 82.3 °F 53.5 °F 29.88 in Calm     37 % 0.00 in 265.00 W/m2
18:42 82.1 °F 54.0 °F 29.88 in SW 1.0 mph 1.0 mph 38 % 0.00 in 246.00 W/m2
18:47 81.8 °F 54.5 °F 29.88 in Calm     39 % 0.00 in 236.00 W/m2
18:52 81.4 °F 54.8 °F 29.88 in Calm     40 % 0.00 in 221.00 W/m2
18:57 81.1 °F 54.5 °F 29.88 in Calm   1.0 mph 40 % 0.00 in 207.00 W/m2
19:02 80.9 °F 55.0 °F 29.88 in Calm   1.0 mph 41 % 0.00 in 192.00 W/m2
19:07 80.5 °F 54.7 °F 29.88 in Calm   1.0 mph 41 % 0.00 in 172.00 W/m2
19:12 80.2 °F 55.0 °F 29.88 in Calm   1.0 mph 42 % 0.00 in 155.00 W/m2
19:17 80.0 °F 55.5 °F 29.88 in Calm   1.0 mph 43 % 0.00 in 137.00 W/m2
19:23 79.7 °F 55.9 °F 29.89 in Calm   1.0 mph 44 % 0.00 in 121.00 W/m2
19:28 79.4 °F 56.2 °F 29.88 in Calm   1.0 mph 45 % 0.00 in 105.00 W/m2
19:33 79.0 °F 55.9 °F 29.88 in Calm   1.0 mph 45 % 0.00 in 88.00 W/m2
19:38 78.6 °F 56.1 °F 29.89 in Calm   1.0 mph 46 % 0.00 in 72.00 W/m2
19:43 78.3 °F 55.8 °F 29.89 in Calm   1.0 mph 46 % 0.00 in 58.00 W/m2
19:48 77.9 °F 55.5 °F 29.89 in Calm     46 % 0.00 in 46.00 W/m2
19:53 77.6 °F 55.8 °F 29.89 in Calm     47 % 0.00 in 35.00 W/m2
19:58 77.4 °F 55.6 °F 29.89 in Calm   1.0 mph 47 % 0.00 in 26.00 W/m2
20:03 77.1 °F 55.3 °F 29.89 in Calm   1.0 mph 47 % 0.00 in 19.00 W/m2
20:08 76.7 °F 55.0 °F 29.89 in Calm     47 % 0.00 in 16.00 W/m2
20:13 76.5 °F 54.8 °F 29.89 in Calm     47 % 0.00 in 14.00 W/m2
20:18 76.0 °F 54.9 °F 29.89 in Calm     48 % 0.00 in 12.00 W/m2
20:23 75.5 °F 55.0 °F 29.89 in Calm     49 % 0.00 in 9.00 W/m2
20:28 75.1 °F 54.7 °F 29.89 in Calm     49 % 0.00 in 7.00 W/m2
20:33 74.8 °F 54.4 °F 29.89 in Calm     49 % 0.00 in 5.00 W/m2
20:38 74.4 °F 54.6 °F 29.89 in Calm   1.0 mph 50 % 0.00 in 0.00 W/m2
20:43 74.3 °F 54.5 °F 29.89 in Calm     50 % 0.00 in 0.00 W/m2
20:48 74.2 °F 54.4 °F 29.89 in Calm   1.0 mph 50 % 0.00 in 0.00 W/m2
20:53 74.1 °F 53.7 °F 29.89 in Calm   1.0 mph 49 % 0.00 in 0.00 W/m2
20:58 74.1 °F 53.7 °F 29.89 in Calm   1.0 mph 49 % 0.00 in 0.00 W/m2
21:04 74.0 °F 53.7 °F 29.89 in Calm     49 % 0.00 in 0.00 W/m2
21:09 74.0 °F 53.1 °F 29.90 in Calm     48 % 0.00 in 0.00 W/m2
21:13 74.0 °F 53.1 °F 29.90 in Calm   1.0 mph 48 % 0.00 in 0.00 W/m2
21:18 73.9 °F 53.0 °F 29.90 in Calm   1.0 mph 48 % 0.00 in 0.00 W/m2
21:23 73.8 °F 52.9 °F 29.90 in Calm   1.0 mph 48 % 0.00 in 0.00 W/m2
21:28 73.7 °F 52.8 °F 29.90 in Calm     48 % 0.00 in 0.00 W/m2
21:33 73.7 °F 52.8 °F 29.90 in Calm     48 % 0.00 in 0.00 W/m2
21:38 73.6 °F 52.7 °F 29.90 in Calm     48 % 0.00 in 0.00 W/m2
21:43 73.5 °F 52.6 °F 29.90 in Calm   1.0 mph 48 % 0.00 in 0.00 W/m2
21:44 73.5 °F 52.6 °F 29.90 in Calm   1.0 mph 48 % 0.00 in 0.00 W/m2
21:49 73.3 °F 53.0 °F 29.91 in Calm   4.0 mph 49 % 0.00 in 0.00 W/m2
21:54 73.2 °F 52.9 °F 29.91 in Calm   4.0 mph 49 % 0.00 in 0.00 W/m2
21:59 73.1 °F 52.8 °F 29.91 in Calm   1.0 mph 49 % 0.00 in 0.00 W/m2
22:04 73.0 °F 52.7 °F 29.91 in Calm   2.0 mph 49 % 0.00 in 0.00 W/m2
22:09 72.8 °F 52.5 °F 29.91 in Calm   4.0 mph 49 % 0.00 in 0.00 W/m2
22:14 72.7 °F 52.5 °F 29.91 in Calm   6.0 mph 49 % 0.00 in 0.00 W/m2
22:19 72.5 °F 52.3 °F 29.91 in Calm   6.0 mph 49 % 0.00 in 0.00 W/m2
22:24 72.5 °F 52.3 °F 29.91 in Calm   6.0 mph 49 % 0.00 in 0.00 W/m2
22:29 72.4 °F 52.2 °F 29.91 in Calm   6.0 mph 49 % 0.00 in 0.00 W/m2
22:34 72.3 °F 52.1 °F 29.91 in SSE 1.0 mph 5.0 mph 49 % 0.00 in 0.00 W/m2
22:39 72.2 °F 52.0 °F 29.91 in SE 1.0 mph 8.0 mph 49 % 0.00 in 0.00 W/m2
22:44 72.2 °F 52.0 °F 29.91 in ESE 4.0 mph 8.0 mph 49 % 0.00 in 0.00 W/m2
22:49 72.1 °F 51.9 °F 29.91 in ESE 5.0 mph 9.0 mph 49 % 0.00 in 0.00 W/m2
22:54 72.1 °F 51.9 °F 29.91 in ESE 6.0 mph 8.0 mph 49 % 0.00 in 0.00 W/m2
22:59 72.0 °F 52.4 °F 29.92 in ESE 2.0 mph 8.0 mph 50 % 0.00 in 0.00 W/m2
23:04 72.0 °F 52.4 °F 29.92 in ESE 5.0 mph 12.0 mph 50 % 0.00 in 0.00 W/m2
23:09 72.0 °F 52.4 °F 29.92 in Calm   11.0 mph 50 % 0.00 in 0.00 W/m2
23:14 71.9 °F 52.3 °F 29.91 in Calm   11.0 mph 50 % 0.00 in 0.00 W/m2
23:19 71.9 °F 52.3 °F 29.92 in ESE 1.0 mph 13.0 mph 50 % 0.00 in 0.00 W/m2
23:24 71.8 °F 52.2 °F 29.92 in Calm   12.0 mph 50 % 0.00 in 0.00 W/m2
23:29 71.8 °F 52.2 °F 29.92 in ESE 6.0 mph 11.0 mph 50 % 0.00 in 0.00 W/m2
23:34 71.8 °F 52.2 °F 29.92 in Calm   12.0 mph 50 % 0.00 in 0.00 W/m2
23:39 71.8 °F 52.2 °F 29.91 in Calm   15.0 mph 50 % 0.00 in 0.00 W/m2
23:44 71.7 °F 52.1 °F 29.92 in Calm   11.0 mph 50 % 0.00 in 0.00 W/m2
23:49 71.7 °F 51.5 °F 29.92 in ESE 8.0 mph 12.0 mph 49 % 0.00 in 0.00 W/m2
23:54 71.7 °F 52.1 °F 29.92 in ESE 9.0 mph 12.0 mph 50 % 0.00 in 0.00 W/m2
23:59 71.7 °F 52.1 °F 29.92 in ESE 5.0 mph 12.0 mph 50 % 0.00 in 0.00 W/m2
Juneau County Weather
Compliments of Weather Underground - 4.5 mb
 WU-history PHP script courtesy of   Juneau County Weather.
powered by Cumulus v1.9.3 (1059)
Ambient Weather VWS v14.00
Top Contact Website Map Copyright © 2007 - 2018 Foresthillweather.com Never base important decisions on this or any weather information obtained from the Internet